When you browse on this site, cookies collect data to enhance your experience and personalize the content and advertising you see.
Visit our Privacy Policy to learn more. By continuing to use the site, you agree to this use of cookies and data.
  • Em Portugal
  • Lista de países
  • Para 7 dias
  • Temperatura da água
  • Mapas de satélite
  • Mapa do tempo
  • Widgets de tempo
  • user-avatar
    Iniciar Sessão

    Previsão horária em Starokrasnoe

    Hoje, 20 Junho, Quinta-feira

    Tempo Temperatura Precipitação Vento Pressão Humidade
    00:00 +18°C° 0 mm 2 m/s 750 mmHg 81%
    01:00 +18°C° 0 mm 2 m/s 750 mmHg 83%
    02:00 +17°C° 0 mm 2 m/s 750 mmHg 85%
    03:00 +17°C° 0 mm 2 m/s 750 mmHg 85%
    04:00 +17°C° 0 mm 2 m/s 750 mmHg 86%
    05:00 +17°C° 0 mm 2 m/s 750 mmHg 86%
    06:00 +19°C° 0 mm 2 m/s 750 mmHg 81%
    07:00 +21°C° 0 mm 2 m/s 750 mmHg 76%
    08:00 +24°C° 0 mm 2 m/s 750 mmHg 72%
    09:00 +25°C° 0 mm 3 m/s 750 mmHg 68%
    10:00 +26°C° 0 mm 3 m/s 750 mmHg 65%
    11:00 +27°C° 0 mm 4 m/s 750 mmHg 62%
    12:00 +28°C° 0.1 mm 4 m/s 750 mmHg 60%
    13:00 +28°C° 0.1 mm 4 m/s 749 mmHg 59%
    14:00 +29°C° 0.1 mm 4 m/s 749 mmHg 57%
    15:00 +28°C° 0.3 mm 4 m/s 749 mmHg 62%
    16:00 +28°C° 0.3 mm 3 m/s 749 mmHg 67%
    17:00 +27°C° 0.3 mm 3 m/s 749 mmHg 72%
    18:00 +26°C° 0.3 mm 3 m/s 749 mmHg 76%
    19:00 +25°C° 0.3 mm 3 m/s 749 mmHg 81%
    20:00 +22°C° 0.3 mm 3 m/s 749 mmHg 85%
    21:00 +22°C° 0 mm 3 m/s 749 mmHg 87%
    22:00 +21°C° 0 mm 3 m/s 749 mmHg 90%
    23:00 +20°C° 0 mm 3 m/s 749 mmHg 92%

    Amanhã, 21 Junho, Sexta-feira

    Tempo Temperatura Precipitação Vento Pressão Humidade
    00:00 +20°C° 0 mm 3 m/s 749 mmHg 92%
    01:00 +20°C° 0 mm 3 m/s 749 mmHg 93%
    02:00 +19°C° 0 mm 3 m/s 750 mmHg 93%
    03:00 +19°C° 0 mm 3 m/s 750 mmHg 92%
    04:00 +19°C° 0 mm 3 m/s 750 mmHg 92%
    05:00 +19°C° 0 mm 3 m/s 750 mmHg 91%
    06:00 +21°C° 0 mm 3 m/s 750 mmHg 85%
    07:00 +22°C° 0 mm 3 m/s 750 mmHg 79%
    08:00 +25°C° 0 mm 4 m/s 750 mmHg 73%
    09:00 +26°C° 0 mm 4 m/s 750 mmHg 68%
    10:00 +28°C° 0 mm 5 m/s 750 mmHg 64%
    11:00 +29°C° 0 mm 5 m/s 750 mmHg 59%
    12:00 +29°C° 0 mm 5 m/s 750 mmHg 58%
    13:00 +30°C° 0 mm 5 m/s 749 mmHg 56%
    14:00 +30°C° 0 mm 5 m/s 749 mmHg 55%
    15:00 +30°C° 0.3 mm 4 m/s 749 mmHg 60%
    16:00 +29°C° 0.3 mm 4 m/s 749 mmHg 65%
    17:00 +29°C° 0.3 mm 3 m/s 749 mmHg 71%
    18:00 +27°C° 0.2 mm 3 m/s 749 mmHg 76%
    19:00 +26°C° 0.2 mm 3 m/s 749 mmHg 80%
    20:00 +24°C° 0.2 mm 3 m/s 749 mmHg 85%
    21:00 +22°C° 0.1 mm 3 m/s 749 mmHg 86%
    22:00 +22°C° 0.1 mm 3 m/s 749 mmHg 88%
    23:00 +21°C° 0.1 mm 3 m/s 749 mmHg 89%

    Depois de amanhã, 22 Junho, Sábado

    Tempo Temperatura Precipitação Vento Pressão Humidade
    00:00 +20°C° 0.1 mm 3 m/s 749 mmHg 89%
    01:00 +20°C° 0.1 mm 3 m/s 749 mmHg 88%
    02:00 +19°C° 0.1 mm 3 m/s 749 mmHg 88%
    03:00 +19°C° 0 mm 3 m/s 749 mmHg 88%
    04:00 +19°C° 0 mm 3 m/s 749 mmHg 88%
    05:00 +19°C° 0 mm 2 m/s 749 mmHg 88%
    06:00 +21°C° 0 mm 2 m/s 750 mmHg 84%
    07:00 +23°C° 0 mm 2 m/s 750 mmHg 80%
    08:00 +25°C° 0 mm 2 m/s 750 mmHg 75%
    09:00 +26°C° 0.6 mm 3 m/s 750 mmHg 71%
    10:00 +28°C° 0.6 mm 3 m/s 750 mmHg 66%
    11:00 +29°C° 0.6 mm 3 m/s 750 mmHg 62%
    12:00 +29°C° 1.4 mm 2 m/s 750 mmHg 63%
    13:00 +29°C° 1.4 mm 2 m/s 750 mmHg 65%
    14:00 +29°C° 1.4 mm 1 m/s 750 mmHg 66%
    15:00 +29°C° 0.5 mm 1 m/s 750 mmHg 68%
    16:00 +28°C° 0.5 mm 2 m/s 750 mmHg 71%
    17:00 +28°C° 0.5 mm 2 m/s 749 mmHg 73%
    18:00 +27°C° 1.2 mm 2 m/s 750 mmHg 77%
    19:00 +25°C° 1.2 mm 2 m/s 750 mmHg 81%
    20:00 +24°C° 1.2 mm 2 m/s 750 mmHg 86%
    21:00 +23°C° 2 mm 2 m/s 750 mmHg 88%
    22:00 +22°C° 2 mm 1 m/s 750 mmHg 90%
    23:00 +22°C° 2 mm 1 m/s 750 mmHg 93%

    23 Junho, Domingo

    Tempo Temperatura Precipitação Vento Pressão Humidade
    00:00 +21°C° 0.9 mm 1 m/s 750 mmHg 93%
    01:00 +21°C° 0.9 mm 1 m/s 750 mmHg 94%
    02:00 +20°C° 0.9 mm 2 m/s 750 mmHg 95%
    03:00 +20°C° 1.2 mm 2 m/s 750 mmHg 95%
    04:00 +20°C° 1.2 mm 2 m/s 750 mmHg 96%
    05:00 +20°C° 1.2 mm 2 m/s 751 mmHg 97%
    06:00 +21°C° 0.6 mm 2 m/s 751 mmHg 95%
    07:00 +23°C° 0.6 mm 2 m/s 751 mmHg 93%
    08:00 +23°C° 0.6 mm 2 m/s 751 mmHg 91%
    09:00 +25°C° 1.1 mm 2 m/s 751 mmHg 84%
    10:00 +26°C° 1.1 mm 2 m/s 751 mmHg 78%
    11:00 +28°C° 1.1 mm 2 m/s 751 mmHg 72%
    12:00 +27°C° 0.6 mm 2 m/s 751 mmHg 72%
    13:00 +27°C° 0.6 mm 3 m/s 751 mmHg 73%
    14:00 +27°C° 0.6 mm 3 m/s 751 mmHg 74%
    15:00 +27°C° 0.7 mm 3 m/s 751 mmHg 78%
    16:00 +26°C° 0.7 mm 4 m/s 751 mmHg 81%
    17:00 +25°C° 0.7 mm 4 m/s 751 mmHg 85%
    18:00 +24°C° 0.2 mm 3 m/s 751 mmHg 88%
    19:00 +22°C° 0.2 mm 3 m/s 751 mmHg 91%
    20:00 +21°C° 0.2 mm 2 m/s 751 mmHg 93%
    21:00 +21°C° 0.1 mm 3 m/s 751 mmHg 94%
    22:00 +20°C° 0.1 mm 3 m/s 751 mmHg 96%
    23:00 +19°C° 0.1 mm 3 m/s 752 mmHg 97%

    24 Junho, Segunda-feira

    Tempo Temperatura Precipitação Vento Pressão Humidade
    00:00 +19°C° 0.1 mm 3 m/s 752 mmHg 97%
    01:00 +18°C° 0.1 mm 3 m/s 752 mmHg 98%
    02:00 +18°C° 0.1 mm 2 m/s 752 mmHg 98%
    03:00 +18°C° 0.2 mm 3 m/s 752 mmHg 98%
    04:00 +18°C° 0.2 mm 3 m/s 752 mmHg 98%
    05:00 +18°C° 0.2 mm 3 m/s 752 mmHg 98%
    06:00 +18°C° 0.1 mm 3 m/s 752 mmHg 96%
    07:00 +19°C° 0.1 mm 4 m/s 752 mmHg 95%
    08:00 +20°C° 0.1 mm 4 m/s 753 mmHg 93%
    09:00 +21°C° 0.1 mm 4 m/s 753 mmHg 90%
    10:00 +21°C° 0.1 mm 4 m/s 753 mmHg 86%
    11:00 +22°C° 0.1 mm 5 m/s 753 mmHg 82%
    12:00 +23°C° 0 mm 5 m/s 753 mmHg 79%
    13:00 +25°C° 0 mm 5 m/s 753 mmHg 75%
    14:00 +26°C° 0 mm 5 m/s 753 mmHg 72%
    15:00 +26°C° 0.1 mm 5 m/s 753 mmHg 73%
    16:00 +25°C° 0.1 mm 5 m/s 753 mmHg 74%
    17:00 +25°C° 0.1 mm 5 m/s 753 mmHg 75%
    18:00 +23°C° 0 mm 5 m/s 753 mmHg 79%
    19:00 +22°C° 0 mm 4 m/s 753 mmHg 82%
    20:00 +20°C° 0 mm 4 m/s 753 mmHg 86%
    21:00 +19°C° 0 mm 3 m/s 753 mmHg 86%
    22:00 +18°C° 0 mm 3 m/s 753 mmHg 86%
    23:00 +17°C° 0 mm 3 m/s 754 mmHg 86%

    25 Junho, Terça-feira

    Tempo Temperatura Precipitação Vento Pressão Humidade
    00:00 +16°C° 0 mm 3 m/s 754 mmHg 85%
    01:00 +16°C° 0 mm 3 m/s 754 mmHg 85%
    02:00 +14°C° 0 mm 3 m/s 754 mmHg 84%
    03:00 +14°C° 0 mm 3 m/s 754 mmHg 85%
    04:00 +14°C° 0 mm 3 m/s 754 mmHg 86%
    05:00 +14°C° 0 mm 3 m/s 754 mmHg 87%
    06:00 +17°C° 0 mm 3 m/s 754 mmHg 83%
    07:00 +18°C° 0 mm 3 m/s 754 mmHg 78%
    08:00 +20°C° 0 mm 3 m/s 754 mmHg 74%
    09:00 +21°C° 0 mm 4 m/s 754 mmHg 69%
    10:00 +23°C° 0 mm 4 m/s 754 mmHg 65%
    11:00 +25°C° 0 mm 4 m/s 754 mmHg 60%
    12:00 +25°C° 0 mm 4 m/s 754 mmHg 59%
    13:00 +25°C° 0 mm 5 m/s 754 mmHg 58%
    14:00 +26°C° 0 mm 5 m/s 754 mmHg 56%
    15:00 +25°C° 0 mm 5 m/s 754 mmHg 59%
    16:00 +23°C° 0 mm 5 m/s 754 mmHg 61%
    17:00 +23°C° 0 mm 5 m/s 754 mmHg 63%
    18:00 +21°C° 0 mm 4 m/s 754 mmHg 67%
    19:00 +20°C° 0 mm 4 m/s 754 mmHg 72%
    20:00 +18°C° 0 mm 3 m/s 754 mmHg 76%
    21:00 +17°C° 0 mm 3 m/s 755 mmHg 76%
    22:00 +16°C° 0 mm 3 m/s 755 mmHg 75%
    23:00 +14°C° 0 mm 3 m/s 755 mmHg 75%
    Mostrar mais